Location: Mahannah Oil Field
(37.4664°N, 96.6003°W)
Time: 02:09:11
(UTC+00:00)

A-11 Canister half - Pass Details

Date: 26 January 2021
Orbit: 1524 x 1684 km, 47.3° (Epoch: 25 February)

Event Time Altitude Azimuth Distance (km) Brightness Sun altitude
Rises 17:30:39 0° 181° (S) 4,664 12.5 31.7°
Reaches altitude 10° 17:34:55 10° 164° (SSE) 3,679 12.6 32.0°
Maximum altitude 17:40:43 19° 125° (SE) 3,061 11.6 32.4°
Drops below altitude 10° 17:46:32 10° 85° (E) 3,705 11.2 32.7°
Sets 17:50:48 0° 68° (ENE) 4,709 11.5 32.9°
